STARLINK-34144 (63958 NORAD) Tracking and Keplerian Element Data

This shows tracking and keplerian element data for the satellite.

Feedback or suggestion? Click here.




ElementValue
Catalog63958
NameSTARLINK-34144
Epoch Orbit3516
Epoch Day354.108516
Epoch Year2025
RAAN265.8078
Inclination43.001
Eccentricity0.0001162
Argument of Perigee281.227
Mean Anonmoly78.8451
Mean Motion15.27603114
Decay Rate0.00014159
L11 63958U 25099G 25354.10851600 .00014159 00000+0 52268-3 0 9991
L22 63958 43.0010 265.8078 0001162 281.2270 78.8451 15.27603114 35167



Live tracking and technical data element details for STARLINK-34144 (NORAD 63958). STARLINK-34144 can be tracked NOW for your location showing map with azimuth and elevation plus other details from your city location.







IsCatalogInMostPopularTable: catalog: 63958, numindb: 5
Update: records affected: 1



GetName: 63958 STARLINK-34144

Hit Count: updated at: Mon, 20 Apr 2026 09:32:12 GMT